Content
SEND FEEDBACK

Daily
Averages
Monthly
Summary
India

HYDERABAD, INDIA


Home > Asia > India
Elevation: 1788 feet     Latitude: 17 27N     Longitude: 078 28E

WEATHER
 
SELECT A DAY
Number of Records: 125,720;   Date Range: 12/24/96 - 8/10/14
 
SHARE

PRINT THIS DATA

[ ← Previous Day ]
WEATHER ALMANAC - MAY 7, 2013
[ Next Day → ]
[ °C ]   °F
Weather ElementAverageHighLow
Temperature96.8 °F111.2 °F (3:10 pm)82.4 °F (6:10 am)
Dewpoint66.1 °F74 °F (8:30 am)59 °F (7:10 pm)
Humidity35.9 %66 % (6:10 am)22 % (3:10 pm)
Barometer29.74 in29.86 in (10:10 am)29.55 in (5:30 pm)
Wind Speed4.1 mph8.1 mph (11:10 am)
Weather ElementAverage
Visibility4.4 mi
Wind DirectionSSE (164.4 °)

Weather ElementTotal
Precipitation---
Cooling Degree Days31.8 (Base 65)
Growing Degree Days46.8 (Base 50)
Averaged from 21 records on May 7, 2013
WEATHER CONDITIONS BREAKOUT
WIND DIRECTION BREAKOUT
WEATHER BY HOUR - MAY 7, 2013
[ °C ]   °F
Local TimeTemperatureDewpointHumidityBarometerVisibilityWind DirectionWind SpeedGust SpeedPrecipitationEventsConditions
5:30 AM83.0 °F72.0 °F63 %29.67 in2.0 miCalmHaze
6:10 AM82.4 °F69.8 °F66 %29.80 in3.1 miESE (120°)4.6 mphHaze
7:10 AM86.0 °F69.8 °F58 %29.83 in3.1 miSSE (150°)6.9 mphHaze
8:10 AM91.4 °F73.4 °F55 %29.83 in3.1 miSSE (150°)6.9 mphHaze
8:30 AM89.0 °F74.0 °F53 %29.71 in6.0 miCalmScattered Clouds
10:10 AM96.8 °F69.8 °F41 %29.86 in3.7 miSW (220°)6.9 mph
11:10 AM102.2 °F69.8 °F35 %29.86 in3.7 miSouth (180°)8.1 mph
11:30 AM98.0 °F66.0 °F26 %29.66 in6.0 miSouth (180°)2.3 mphClear
12:10 PM104.0 °F68.0 °F31 %29.83 in5.0 miSW (230°)5.8 mphPartly Cloudy
1:10 PM105.8 °F66.2 °F28 %29.80 in5.0 miSW (230°)8.1 mphScattered Clouds
2:30 PM103.0 °F68.0 °F23 %29.57 in6.0 miSW (230°)4.6 mphPartly Cloudy
3:10 PM111.2 °F64.4 °F22 %29.74 in5.0 miSSE (150°)6.9 mphScattered Clouds
4:10 PM109.4 °F64.4 °F23 %29.71 in5.0 miSSW (210°)4.6 mphPartly Cloudy
5:10 PM107.6 °F60.8 °F22 %29.71 in5.0 miSSW (200°)3.5 mphPartly Cloudy
5:30 PM93.0 °F65.0 °F30 %29.55 in6.0 miSW (230°)4.6 mphMostly Cloudy
6:10 PM96.8 °F62.6 °F32 %29.74 in3.7 miESE (120°)5.8 mphPartly Cloudy
7:10 PM95.0 °F59.0 °F30 %29.77 in3.1 miCalmHaze
8:10 PM93.2 °F60.8 °F34 %29.77 in3.1 miCalmHaze
8:30 PM95.0 °F62.0 °F24 %29.62 in6.0 miCalmPartly Cloudy
9:10 PM95.0 °F60.8 °F32 %29.80 in3.1 miSW (220°)3.5 mphHaze
11:30 PM94.0 °F62.0 °F25 %29.65 in6.0 miSE (140°)3.5 mphPartly Cloudy
Hourly data recorded from VOHY, located miles away from Hyderabad, India







STORIES FROM OUR PARTNERS